#datint,netname,site,siteID,timestamp,airt_abovecanopy_avg,airt_f,airt_belowcanopy_avg,dpt_f,rh,soil_vwc,soil_f,Solar_rad,winds_mph,windd_deg,winds_mph_max,leafwetns,tot_10rain_mm,tot_60rain_mm,tot_dayrain_mm,leaft_1,budt_1
10min,FGNet,alpine,42.04,09NOV2021:00:00:00,36.5,34.3,33.6,34.1,91,28.67,46.1894,0,0.7,72.38,2.3,100,0.00,0.00,0.00,31.478,33.5444
10min,FGNet,alpine,42.04,09NOV2021:00:10:00,35.9,33.9,33.3,33.6,91,28.67,46.148,0,0.0,52.41,0.0,100,0.00,0.00,0.00,31.3988,32.2322
10min,FGNet,alpine,42.04,09NOV2021:00:20:00,36.0,34.5,34.0,33.9,92,28.67,46.076,0,1.5,98.8,2.8,100,0.00,0.00,0.00,31.8398,33.2114
10min,FGNet,alpine,42.04,09NOV2021:00:30:00,36.1,34.4,33.9,34.0,92,28.66,46.0256,0,1.9,65.33,3.6,100,0.00,0.00,0.00,31.7516,32.9162
10min,FGNet,alpine,42.04,09NOV2021:00:40:00,35.9,34.2,33.8,33.8,92,28.67,45.9824,0,1.3,79.72,2.8,100,0.00,0.00,0.00,31.2926,32.4176
10min,FGNet,alpine,42.04,09NOV2021:00:50:00,35.7,33.8,33.2,33.5,92,28.66,45.8816,0,0.3,158.2,2.4,100,0.00,0.00,0.00,31.8002,32.7596
10min,FGNet,alpine,42.04,09NOV2021:01:00:00,35.4,33.7,33.1,33.4,92,28.66,45.851,0,1.1,119.1,2.5,100,0.00,0.00,0.00,31.0964,32.2808
10min,FGNet,alpine,42.04,09NOV2021:01:10:00,35.3,33.7,33.0,33.3,93,28.66,45.779,0,0.3,32.36,1.9,100,0.00,0.00,0.00,30.7256,31.5968
10min,FGNet,alpine,42.04,09NOV2021:01:20:00,35.4,33.8,33.3,33.6,93,28.65,45.7304,0,1.5,86.4,2.9,100,0.00,0.00,0.00,30.668,32.2934
10min,FGNet,alpine,42.04,09NOV2021:01:30:00,35.4,33.7,33.3,33.6,93,28.65,45.6656,0,1.0,88.8,2.5,100,0.00,0.00,0.00,30.6284,32.7056
10min,FGNet,alpine,42.04,09NOV2021:01:40:00,35.3,33.5,32.9,33.5,93,28.66,45.6314,0,1.0,69.92,2.0,100,0.00,0.00,0.00,31.2368,32.0198
10min,FGNet,alpine,42.04,09NOV2021:01:50:00,35.4,33.8,33.2,33.8,94,28.65,45.6044,0,1.7,70.94,3.7,100,0.00,0.00,0.00,31.6706,32.5328
10min,FGNet,alpine,42.04,09NOV2021:02:00:00,35.4,33.5,33.0,33.7,93,28.65,45.554,0,0.6,183.7,2.2,100,0.00,0.00,0.00,30.8102,31.946
10min,FGNet,alpine,42.04,09NOV2021:02:10:00,35.4,33.7,33.2,33.7,94,28.64,45.4964,0,0.8,109.6,2.0,100,0.00,0.00,0.00,32.2988,33.4058
10min,FGNet,alpine,42.04,09NOV2021:02:20:00,35.9,33.7,33.2,34.3,94,28.64,45.437,0,0.8,65.12,2.0,100,0.00,0.00,0.00,31.0262,32.369
10min,FGNet,alpine,42.04,09NOV2021:02:30:00,35.4,33.4,33.0,33.7,93,28.65,45.3974,0,0.8,70.16,2.8,100,0.00,0.00,0.00,31.361,32.2808
10min,FGNet,alpine,42.04,09NOV2021:02:40:00,35.8,34.3,33.9,34.2,94,28.65,45.338,0,1.6,49.96,4.1,100,0.00,0.00,0.00,32.0846,32.7398
10min,FGNet,alpine,42.04,09NOV2021:02:50:00,36.0,34.3,33.8,34.2,93,28.65,45.2444,0,1.6,74.69,3.3,100,0.00,0.00,0.00,32.0054,32.7884
10min,FGNet,alpine,42.04,09NOV2021:03:00:00,36.1,34.3,33.8,34.1,93,28.65,45.1994,0,1.5,98.1,3.4,100,0.00,0.00,0.00,32.387,33.6092
10min,FGNet,alpine,42.04,09NOV2021:03:10:00,35.8,33.8,33.2,33.7,92,28.65,45.1436,0,0.7,72.42,2.4,100,0.00,0.00,0.00,31.6328,32.4554
10min,FGNet,alpine,42.04,09NOV2021:03:20:00,35.7,33.9,33.5,33.6,92,28.64,45.095,0,1.1,90.8,2.8,100,0.00,0.00,0.00,31.82,33.2006
10min,FGNet,alpine,42.04,09NOV2021:03:30:00,35.5,33.8,33.2,33.4,92,28.64,45.014,0,1.4,193.5,3.3,100,0.00,0.00,0.00,32.3168,33.2366
10min,FGNet,alpine,42.04,09NOV2021:03:40:00,35.6,34.4,34.1,33.6,93,28.64,44.9834,0,2.4,124.9,5.2,100,0.00,0.00,0.00,33.3968,34.061
10min,FGNet,alpine,42.04,09NOV2021:03:50:00,36.1,35.0,34.6,34.0,92,28.65,44.879,0,2.9,119.4,5.6,100,0.00,0.00,0.00,33.4544,34.1798
10min,FGNet,alpine,42.04,09NOV2021:04:00:00,36.1,34.6,34.2,33.8,92,28.64,44.8574,0,0.8,91,2.7,100,0.00,0.00,0.00,32.4158,33.2186
10min,FGNet,alpine,42.04,09NOV2021:04:10:00,36.0,34.3,33.8,33.7,91,28.64,44.825,0,0.6,140.6,2.1,100,0.00,0.00,0.00,32.4734,33.2366
10min,FGNet,alpine,42.04,09NOV2021:04:20:00,36.5,34.8,34.4,34.4,92,28.64,44.7584,0,1.5,79.84,3.6,100,0.00,0.00,0.00,32.3366,33.3158
10min,FGNet,alpine,42.04,09NOV2021:04:30:00,36.9,35.6,35.3,34.5,91,28.64,44.735,0,3.5,80.3,5.4,100,0.00,0.00,0.00,34.106,35.2418
10min,FGNet,alpine,42.04,09NOV2021:04:40:00,37.8,36.2,35.6,35.0,90,28.63,44.681,0,3.1,113.4,4.2,100,0.00,0.00,0.00,35.2112,36.4172
10min,FGNet,alpine,42.04,09NOV2021:04:50:00,38.7,36.8,36.1,35.2,87,28.63,44.6414,0,2.0,147,4.5,100,0.00,0.00,0.00,34.997,35.6936
10min,FGNet,alpine,42.04,09NOV2021:05:00:00,39.2,37.2,36.4,35.3,86,28.64,44.6054,0,1.3,137.5,3.3,100,0.00,0.00,0.00,35.4848,36.7214
10min,FGNet,alpine,42.04,09NOV2021:05:10:00,38.7,37.0,36.4,34.9,86,28.63,44.5784,0,2.6,182.9,4.3,100,0.00,0.00,0.00,35.249,36.0122
10min,FGNet,alpine,42.04,09NOV2021:05:20:00,39.1,37.9,37.3,35.3,86,28.63,44.5424,0,1.6,72.99,3.1,100,0.00,0.00,0.00,35.3264,36.4442
10min,FGNet,alpine,42.04,09NOV2021:05:30:00,39.6,37.7,37.2,35.1,84,28.63,44.4776,0,1.8,140,5.1,100,0.00,0.00,0.00,35.7188,37.544
10min,FGNet,alpine,42.04,09NOV2021:05:40:00,39.9,37.7,37.1,34.6,81,28.63,44.4146,0,1.7,164.1,3.2,100,0.00,0.00,0.00,35.267,36.5414
10min,FGNet,alpine,42.04,09NOV2021:05:50:00,39.1,37.5,36.9,34.9,85,28.63,44.3606,0,1.1,176.2,2.9,100,0.00,0.00,0.00,34.9538,36.6602
10min,FGNet,alpine,42.04,09NOV2021:06:00:00,39.4,37.6,37.0,34.8,83,28.62,44.3174,0,1.2,106.8,3.2,100,0.00,0.00,0.00,35.5028,36.6404
10min,FGNet,alpine,42.04,09NOV2021:06:10:00,39.5,37.8,37.2,34.6,82,28.62,44.2634,0,1.4,119.4,3.9,100,0.00,0.00,0.00,35.8358,38.2532
10min,FGNet,alpine,42.04,09NOV2021:06:20:00,39.5,38.0,37.3,34.5,82,28.62,44.2364,0,2.1,155.9,5.9,100,0.00,0.00,0.00,36.1292,37.7906
10min,FGNet,alpine,42.04,09NOV2021:06:30:00,39.8,38.2,37.5,34.6,82,28.61,44.2166,0,1.0,66.04,2.0,100,0.00,0.00,0.00,36.0914,37.445
10min,FGNet,alpine,42.04,09NOV2021:06:40:00,40.0,38.4,37.7,34.6,81,28.61,44.177,0,2.2,110.6,3.9,100,0.00,0.00,0.00,36.4442,38.9822
10min,FGNet,alpine,42.04,09NOV2021:06:50:00,40.2,38.6,38.0,34.5,80,28.61,44.105,0,1.0,126.9,2.7,100,0.00,0.00,0.00,36.3452,37.859
10min,FGNet,alpine,42.04,09NOV2021:07:00:00,40.1,38.4,37.8,34.6,81,28.61,44.0906,0,0.5,221.4,1.8,100,0.00,0.00,0.00,36.4046,37.6034
10min,FGNet,alpine,42.04,09NOV2021:07:10:00,39.9,38.7,38.2,34.8,82,28.61,44.069,2,1.5,73.14,3.2,100,0.00,0.00,0.00,36.698,38.5286
10min,FGNet,alpine,42.04,09NOV2021:07:20:00,41.0,39.8,39.1,34.3,77,28.61,43.9934,4,2.6,37.16,6.3,100,0.00,0.00,0.00,37.8986,41.6336
10min,FGNet,alpine,42.04,09NOV2021:07:30:00,43.4,43.0,42.1,33.0,66,28.6,43.9916,8,4.0,37.46,5.8,100,0.00,0.00,0.00,38.903,42.7892
10min,FGNet,alpine,42.04,09NOV2021:07:40:00,44.5,43.7,43.1,32.7,63,28.61,43.9484,10,3.1,72.39,6.3,66.67,0.00,0.00,0.00,40.0082,43.889
10min,FGNet,alpine,42.04,09NOV2021:07:50:00,44.9,43.4,42.8,33.1,63,28.62,43.916,11,1.3,125.8,4.9,13.33,0.00,0.00,0.00,40.0676,42.6092
10min,FGNet,alpine,42.04,09NOV2021:08:00:00,44.1,42.4,41.9,34.1,68,28.61,43.907,22,0.6,67.4,2.1,0,0.00,0.00,0.00,41.0774,42.6704
10min,FGNet,alpine,42.04,09NOV2021:08:10:00,43.9,42.6,42.2,34.5,69,28.61,43.8746,34,1.4,174.4,2.4,0,0.00,0.00,0.00,42.6092,43.7486
10min,FGNet,alpine,42.04,09NOV2021:08:20:00,44.4,43.4,43.0,34.8,69,28.61,43.8494,42,1.9,114.5,4.2,0,0.00,0.00,0.00,44.8538,44.6324
10min,FGNet,alpine,42.04,09NOV2021:08:30:00,45.2,44.4,44.0,34.2,65,28.61,43.8314,42,3.4,214.5,6.2,0,0.00,0.00,0.00,45.716,45.716
10min,FGNet,alpine,42.04,09NOV2021:08:40:00,46.2,45.3,44.8,33.1,60,28.61,43.8224,45,1.7,72.6,4.3,0,0.00,0.00,0.00,46.508,46.2272
10min,FGNet,alpine,42.04,09NOV2021:08:50:00,46.7,45.8,45.3,33.5,60,28.61,43.8044,62,1.7,178.3,3.7,0,0.00,0.00,0.00,47.066,45.932
10min,FGNet,alpine,42.04,09NOV2021:09:00:00,46.3,45.6,45.3,34.6,63,28.61,43.799,56,2.7,180.9,5.1,0,0.00,0.00,0.00,47.012,46.688
10min,FGNet,alpine,42.04,09NOV2021:09:10:00,46.8,45.9,45.5,33.8,60,28.6,43.7684,34,0.9,195.7,2.8,0,0.00,0.00,0.00,46.562,46.526
10min,FGNet,alpine,42.04,09NOV2021:09:20:00,46.9,46.0,45.7,32.9,58,28.61,43.7846,35,3.4,222.8,7.4,0,0.00,0.00,0.00,46.436,46.3676
10min,FGNet,alpine,42.04,09NOV2021:09:30:00,47.4,47.2,46.8,32.1,55,28.61,43.772,39,5.7,62.31,9.1,0,0.00,0.00,0.00,48.758,49.316
10min,FGNet,alpine,42.04,09NOV2021:09:40:00,49.1,48.6,48.1,31.1,50,28.6,43.763,36,3.0,201.6,7.7,0,0.00,0.00,0.00,50.342,50.792
10min,FGNet,alpine,42.04,09NOV2021:09:50:00,50.4,49.6,49.0,30.8,47,28.61,43.7414,38,2.7,199.7,8.4,0,0.00,0.00,0.00,51.242,51.89
10min,FGNet,alpine,42.04,09NOV2021:10:00:00,52.8,52.5,52.1,31.2,43,28.6,43.7486,38,7.2,187.6,15.1,0,0.00,0.00,0.00,52.448,52.736
10min,FGNet,alpine,42.04,09NOV2021:10:10:00,53.4,52.7,52.4,32.5,45,28.6,43.745,38,9.2,188.4,18.0,0,0.00,0.00,0.00,52.7,53.312
10min,FGNet,alpine,42.04,09NOV2021:10:20:00,53.4,52.6,52.4,32.9,45,28.6,43.7486,51,8.4,182.5,15.1,0,0.00,0.00,0.00,53.114,53.15
10min,FGNet,alpine,42.04,09NOV2021:10:30:00,53.0,52.2,51.9,33.1,47,28.6,43.7504,68,7.8,191.4,18.7,0,0.00,0.00,0.00,52.466,52.16
10min,FGNet,alpine,42.04,09NOV2021:10:40:00,52.1,51.3,51.1,33.8,49,28.59,43.7504,45,8.9,190.5,18.9,0,0.00,0.00,0.00,50.936,51.134
10min,FGNet,alpine,42.04,09NOV2021:10:50:00,51.3,50.5,50.3,34.7,53,28.59,43.736,41,8.8,177.7,19.2,0,0.00,0.00,0.00,50.45,50.432
10min,FGNet,alpine,42.04,09NOV2021:11:00:00,50.6,50.0,49.9,35.2,55,28.59,43.7576,62,11.1,169.1,19.3,0,0.00,0.00,0.00,50.45,50.216
10min,FGNet,alpine,42.04,09NOV2021:11:10:00,50.0,49.4,49.2,36.0,58,28.59,43.7846,61,10.7,167.2,18.6,0,0.00,0.00,0.00,49.226,48.884
10min,FGNet,alpine,42.04,09NOV2021:11:20:00,49.1,48.3,48.2,36.9,63,28.58,43.7684,54,7.6,165.8,15.3,81.7,0.00,0.00,0.00,46.328,45.3776
10min,FGNet,alpine,42.04,09NOV2021:11:30:00,47.4,46.4,46.4,38.1,70,28.57,43.7936,47,7.6,155,12.8,100,0.00,0.00,0.00,44.6342,42.9908
10min,FGNet,alpine,42.04,09NOV2021:11:40:00,47.0,46.3,46.3,38.6,73,28.58,43.7756,49,8.7,159.8,16.3,100,0.01,0.01,0.01,44.9474,43.3724
10min,FGNet,alpine,42.04,09NOV2021:11:50:00,47.2,46.4,46.3,38.8,73,28.58,43.79,48,7.5,164.7,17.2,100,0.00,0.01,0.01,44.636,43.1132
10min,FGNet,alpine,42.04,09NOV2021:12:00:00,46.3,45.4,45.2,39.7,78,28.58,43.799,38,7.4,180.6,15.5,100,0.02,0.03,0.03,43.9178,42.737
10min,FGNet,alpine,42.04,09NOV2021:12:10:00,45.5,44.8,44.6,40.1,81,28.58,43.826,39,6.7,168.4,11.3,100,0.02,0.02,0.05,43.7972,42.638
10min,FGNet,alpine,42.04,09NOV2021:12:20:00,45.2,44.5,44.4,40.1,82,28.59,43.844,43,2.9,158.6,7.5,100,0.02,0.04,0.07,44.0078,42.7172
10min,FGNet,alpine,42.04,09NOV2021:12:30:00,45.0,44.2,44.1,39.4,81,28.59,43.8134,51,3.3,144.1,10.6,100,0.01,0.05,0.08,43.2608,42.0638
10min,FGNet,alpine,42.04,09NOV2021:12:40:00,44.9,44.2,44.0,38.4,78,28.57,43.8476,51,5.6,163.9,9.1,100,0.01,0.06,0.09,43.0826,42.0656
10min,FGNet,alpine,42.04,09NOV2021:12:50:00,44.9,44.3,44.1,38.3,77,28.58,43.8656,41,6.9,160.7,13.7,100,0.01,0.07,0.10,42.8432,41.6282
10min,FGNet,alpine,42.04,09NOV2021:13:00:00,44.5,43.7,43.5,38.7,80,28.57,43.862,37,4.1,170.7,14.5,100,0.01,0.08,0.11,42.7442,41.5292
10min,FGNet,alpine,42.04,09NOV2021:13:10:00,44.4,44.0,43.7,38.6,80,28.58,43.8674,32,3.5,157.5,11.3,100,0.01,0.01,0.12,42.6848,41.5292
10min,FGNet,alpine,42.04,09NOV2021:13:20:00,44.6,43.9,43.7,38.5,79,28.58,43.88,34,4.8,144.9,9.6,100,0.01,0.02,0.13,42.665,41.5598
10min,FGNet,alpine,42.04,09NOV2021:13:30:00,44.7,44.2,43.9,38.2,78,28.57,43.889,34,4.4,143.4,9.9,100,0.01,0.03,0.14,42.8036,41.9072
10min,FGNet,alpine,42.04,09NOV2021:13:40:00,45.0,44.4,44.1,38.5,78,28.57,43.8926,37,3.6,158.3,8.3,100,0.00,0.03,0.14,43.1042,42.0278
10min,FGNet,alpine,42.04,09NOV2021:13:50:00,45.1,44.3,44.0,38.7,78,28.57,43.9106,33,1.0,109.9,3.0,100,0.01,0.04,0.15,43.0862,42.3086
10min,FGNet,alpine,42.04,09NOV2021:14:00:00,44.7,43.9,43.7,39.6,82,28.57,43.9484,31,1.6,202.9,2.9,100,0.00,0.04,0.15,43.0268,42.4868
10min,FGNet,alpine,42.04,09NOV2021:14:10:00,44.6,43.9,43.6,39.8,83,28.57,43.9214,36,2.8,130.7,5.8,100,0.01,0.01,0.16,43.0862,42.2276
10min,FGNet,alpine,42.04,09NOV2021:14:20:00,44.6,44.1,43.8,39.3,82,28.58,43.9286,48,3.5,68.51,7.9,100,0.00,0.01,0.16,43.8044,42.665
10min,FGNet,alpine,42.04,09NOV2021:14:30:00,44.6,43.8,43.7,40.0,84,28.57,43.9844,57,1.4,115.7,3.7,100,0.01,0.02,0.17,44.0852,42.8252
10min,FGNet,alpine,42.04,09NOV2021:14:40:00,44.4,43.8,43.6,39.8,84,28.58,43.979,58,3.5,91.7,7.4,100,0.00,0.02,0.17,43.5146,42.3878
10min,FGNet,alpine,42.04,09NOV2021:14:50:00,44.5,44.0,43.8,39.2,82,28.57,43.9736,43,3.8,83.6,7.1,100,0.00,0.02,0.17,43.1258,42.4562
10min,FGNet,alpine,42.04,09NOV2021:15:00:00,44.9,44.3,44.0,39.3,81,28.57,43.9826,26,3.5,46.45,7.1,100,0.00,0.02,0.17,43.925,43.0448
10min,FGNet,alpine,42.04,09NOV2021:15:10:00,44.9,44.1,43.8,39.9,82,28.57,43.97,29,2.2,163,6.9,100,0.00,0.00,0.17,43.2032,42.7442
10min,FGNet,alpine,42.04,09NOV2021:15:20:00,44.8,43.9,43.7,40.3,84,28.58,44.0294,23,2.0,165.8,3.8,100,0.00,0.00,0.17,43.2932,42.7838
10min,FGNet,alpine,42.04,09NOV2021:15:30:00,45.2,44.4,44.1,40.2,82,28.57,44.0204,22,3.5,31.06,5.4,100,0.00,0.00,0.17,43.6226,43.2032
10min,FGNet,alpine,42.04,09NOV2021:15:40:00,45.4,44.7,44.4,40.1,81,28.58,44.0006,31,2.9,21.99,5.0,100,0.00,0.00,0.17,44.1248,43.403
10min,FGNet,alpine,42.04,09NOV2021:15:50:00,45.7,44.8,44.5,40.2,81,28.57,44.0564,24,2.0,54.85,4.9,100,0.00,0.00,0.17,43.7234,43.304
10min,FGNet,alpine,42.04,09NOV2021:16:00:00,45.6,44.6,44.2,40.8,83,28.58,44.06,14,0.3,172.6,1.6,100,0.00,0.00,0.17,43.124,43.0034
10min,FGNet,alpine,42.04,09NOV2021:16:10:00,45.5,44.5,44.1,40.5,83,28.58,44.0474,6,2.4,54.32,4.3,100,0.00,0.00,0.17,43.1636,42.9638
10min,FGNet,alpine,42.04,09NOV2021:16:20:00,45.3,44.1,43.7,41.2,85,28.57,44.0834,6,1.0,116.1,2.4,100,0.00,0.00,0.17,42.9926,42.8846
10min,FGNet,alpine,42.04,09NOV2021:16:30:00,44.9,43.8,43.6,41.6,88,28.57,44.0924,13,1.6,40.44,2.8,100,0.01,0.01,0.18,43.2626,43.124
10min,FGNet,alpine,42.04,09NOV2021:16:40:00,44.7,44.0,43.7,42.2,91,28.57,44.114,48,2.1,120.6,4.7,100,0.00,0.01,0.18,45.8564,45.0392
10min,FGNet,alpine,42.04,09NOV2021:16:50:00,44.8,44.4,43.8,42.6,92,28.57,44.1356,38,1.9,60.59,2.8,100,0.01,0.02,0.19,44.6756,44.2436
10min,FGNet,alpine,42.04,09NOV2021:17:00:00,44.8,44.3,43.6,42.9,93,28.58,44.141,37,1.9,70.76,3.1,100,0.00,0.02,0.19,43.7324,43.5236
10min,FGNet,alpine,42.04,09NOV2021:17:10:00,45.0,44.2,43.5,42.3,90,28.58,44.1374,14,2.3,41.83,4.2,100,0.00,0.00,0.19,43.0826,43.043
10min,FGNet,alpine,42.04,09NOV2021:17:20:00,45.3,44.3,43.4,41.3,86,28.58,44.1374,1,2.4,54.44,4.6,100,0.00,0.00,0.19,42.9638,42.7838
10min,FGNet,alpine,42.04,09NOV2021:17:30:00,45.3,44.3,43.2,41.0,85,28.58,44.1356,0,1.9,60.58,3.8,100,0.00,0.00,0.19,42.4454,42.4256
10min,FGNet,alpine,42.04,09NOV2021:17:40:00,45.2,44.1,43.1,41.0,85,28.59,44.1554,0,2.3,80.3,3.6,100,0.00,0.00,0.19,42.5246,42.6146
10min,FGNet,alpine,42.04,09NOV2021:17:50:00,45.0,43.8,42.8,41.4,87,28.58,44.159,0,2.6,79.41,4.5,100,0.00,0.00,0.19,42.386,42.5048
10min,FGNet,alpine,42.04,09NOV2021:18:00:00,44.7,43.6,42.7,41.7,89,28.58,44.1554,0,1.5,146.5,3.2,100,0.00,0.00,0.19,42.4148,42.6848
10min,FGNet,alpine,42.04,09NOV2021:18:10:00,44.5,43.6,42.6,41.7,90,28.58,44.1626,0,1.5,83.5,2.9,100,0.00,0.00,0.19,42.485,42.7244
10min,FGNet,alpine,42.04,09NOV2021:18:20:00,44.3,43.3,42.4,41.9,91,28.58,44.1986,0,1.6,162.7,4.0,100,0.00,0.00,0.19,42.6038,42.9044
10min,FGNet,alpine,42.04,09NOV2021:18:30:00,44.7,43.8,42.7,41.3,88,28.58,44.195,0,1.3,256.1,3.9,100,0.01,0.01,0.20,42.7046,42.6056
10min,FGNet,alpine,42.04,09NOV2021:18:40:00,44.5,43.7,42.6,41.6,90,28.58,44.168,0,2.6,89.5,4.4,100,0.01,0.02,0.21,42.5552,42.5552
10min,FGNet,alpine,42.04,09NOV2021:18:50:00,44.7,43.9,42.9,41.5,88,28.59,44.2256,0,2.4,53.36,4.4,100,0.00,0.02,0.21,42.4652,42.5246
10min,FGNet,alpine,42.04,09NOV2021:19:00:00,45.1,44.0,42.7,40.9,85,28.59,44.2436,0,2.0,139.5,4.6,100,0.00,0.02,0.21,42.6146,42.6848
10min,FGNet,alpine,42.04,09NOV2021:19:10:00,44.9,44.2,43.0,40.4,84,28.6,44.2256,0,5.2,151,9.8,100,0.00,0.00,0.21,42.7442,42.5246
10min,FGNet,alpine,42.04,09NOV2021:19:20:00,45.0,44.3,43.2,40.6,84,28.6,44.2166,0,5.9,239.4,15.0,100,0.03,0.03,0.24,42.8648,42.3068
10min,FGNet,alpine,42.04,09NOV2021:19:30:00,44.3,43.6,42.6,41.1,89,28.59,44.204,0,7.3,308.8,14.3,100,0.05,0.08,0.29,42.7658,42.6452
10min,FGNet,alpine,42.04,09NOV2021:19:40:00,44.3,43.6,42.5,41.5,90,28.6,44.2274,0,3.1,208.5,7.3,100,0.01,0.09,0.30,41.6588,38.5052
10min,FGNet,alpine,42.04,09NOV2021:19:50:00,44.2,43.5,42.4,41.4,90,28.6,44.2184,0,4.0,231.6,5.7,100,0.00,0.09,0.30,41.6696,39.1748
10min,FGNet,alpine,42.04,09NOV2021:20:00:00,44.4,43.6,42.4,41.1,88,28.6,44.2256,0,3.1,124.5,6.4,100,0.01,0.10,0.31,41.4698,39.1856
10min,FGNet,alpine,42.04,09NOV2021:20:10:00,44.0,43.1,42.1,41.0,89,28.6,44.2184,0,4.1,108,11.7,100,0.05,0.05,0.36,41.0036,38.3972
10min,FGNet,alpine,42.04,09NOV2021:20:20:00,43.8,43.0,41.8,39.4,84,28.61,44.24,0,8.1,104.7,17.9,100,0.04,0.09,0.40,40.6274,37.9544
10min,FGNet,alpine,42.04,09NOV2021:20:30:00,43.4,42.5,41.1,38.5,83,28.61,44.2346,0,6.2,135.7,13.6,100,0.04,0.13,0.44,39.8966,37.3046
10min,FGNet,alpine,42.04,09NOV2021:20:40:00,42.7,41.9,40.6,39.0,87,28.78,44.1896,0,3.4,136.3,6.1,100,0.01,0.14,0.45,39.9182,37.2596
10min,FGNet,alpine,42.04,09NOV2021:20:50:00,42.9,41.8,40.3,39.0,86,30,44.2274,0,1.1,227.9,2.6,100,0.00,0.14,0.45,40.0694,37.1138
10min,FGNet,alpine,42.04,09NOV2021:21:00:00,43.2,42.1,40.6,38.9,85,31.57,44.195,0,1.8,198.9,4.3,100,0.00,0.14,0.45,39.7454,36.8204
10min,FGNet,alpine,42.04,09NOV2021:21:10:00,42.8,41.5,40.0,39.2,87,32.9,44.168,0,1.0,290.6,3.3,100,0.00,0.00,0.45,39.4304,36.6656
10min,FGNet,alpine,42.04,09NOV2021:21:20:00,42.2,41.0,39.6,39.5,90,33.59,44.168,0,0.6,120.9,2.0,100,0.00,0.00,0.45,39.3224,36.1562
10min,FGNet,alpine,42.04,09NOV2021:21:30:00,41.7,40.9,39.5,39.7,93,33.88,44.1896,0,1.5,98.4,2.6,100,0.00,0.00,0.45,40.0046,36.4712
10min,FGNet,alpine,42.04,09NOV2021:21:40:00,41.5,40.4,39.0,39.8,94,34.01,44.177,0,1.6,298,2.5,100,0.00,0.00,0.45,40.4114,36.2858
10min,FGNet,alpine,42.04,09NOV2021:21:50:00,41.4,40.6,39.2,39.9,95,34.09,44.1446,0,0.8,182.1,2.5,100,0.00,0.00,0.45,40.5896,36.4028
10min,FGNet,alpine,42.04,09NOV2021:22:00:00,41.4,40.6,39.2,40.1,95,34.12,44.1716,0,1.1,154.7,3.4,100,0.00,0.00,0.45,40.3322,36.4028
10min,FGNet,alpine,42.04,09NOV2021:22:10:00,41.2,40.3,38.8,39.9,95,34.14,44.1356,0,2.0,112.5,3.6,100,0.00,0.00,0.45,40.7588,36.257
10min,FGNet,alpine,42.04,09NOV2021:22:20:00,41.1,40.3,38.9,39.9,95,34.15,44.1284,0,1.0,142.6,2.2,100,0.00,0.00,0.45,40.649,36.266
10min,FGNet,alpine,42.04,09NOV2021:22:30:00,41.1,40.3,38.8,39.9,95,34.16,44.1356,0,1.3,295,2.7,100,0.00,0.00,0.45,40.838,36.4028
10min,FGNet,alpine,42.04,09NOV2021:22:40:00,41.2,40.5,39.0,39.9,95,34.16,44.0744,0,0.7,101,2.3,100,0.00,0.00,0.45,40.9856,35.7944
10min,FGNet,alpine,42.04,09NOV2021:22:50:00,41.4,40.7,39.2,40.1,95,34.15,44.0996,0,1.5,54.57,2.3,100,0.00,0.00,0.45,41.4032,35.7062
10min,FGNet,alpine,42.04,09NOV2021:23:00:00,41.5,40.9,39.3,40.1,95,34.14,44.0996,0,1.7,63.72,2.2,100,0.01,0.01,0.46,41.5616,35.6288
10min,FGNet,alpine,42.04,09NOV2021:23:10:00,41.6,41.0,39.3,40.2,95,34.13,44.069,0,1.5,161.3,2.3,100,0.00,0.00,0.46,41.7416,35.6972
10min,FGNet,alpine,42.04,09NOV2021:23:20:00,41.7,41.1,39.4,40.4,95,34.12,44.042,0,1.0,143.5,2.4,100,0.02,0.02,0.48,41.8406,35.6774
10min,FGNet,alpine,42.04,09NOV2021:23:30:00,41.7,41.2,39.5,40.5,96,34.15,44.033,0,2.1,62.14,3.6,100,0.01,0.03,0.49,41.9504,35.7656
10min,FGNet,alpine,42.04,09NOV2021:23:40:00,41.8,41.3,39.6,40.7,96,34.25,44.0114,0,1.2,156.7,2.7,100,0.00,0.03,0.49,41.9702,35.834
10min,FGNet,alpine,42.04,09NOV2021:23:50:00,42.0,41.4,39.6,40.7,95,34.33,44.0006,0,1.2,127,2.5,100,0.00,0.03,0.49,41.9198,35.7944
10min,FGNet,genola,42.05,09NOV2021:00:00:00,36.7,35.8,34.9,35.2,94,14.94,50.954,0,2.4,104.6,3.3,100,0.00,0.00,0.00,32.9036,34.3994
10min,FGNet,genola,42.05,09NOV2021:00:10:00,37.2,35.5,34.6,35.1,92,15,50.918,0,2.0,91.4,2.6,100,0.00,0.00,0.00,33.1016,34.1528
10min,FGNet,genola,42.05,09NOV2021:00:20:00,37.7,35.7,34.8,35.3,91,14.91,50.918,0,2.6,101.8,3.2,100,0.00,0.00,0.00,34.2032,35.1086
10min,FGNet,genola,42.05,09NOV2021:00:30:00,37.9,36.0,34.9,35.2,90,14.95,50.882,0,2.4,101.2,3.1,100,0.00,0.00,0.00,33.7694,34.8728
10min,FGNet,genola,42.05,09NOV2021:00:40:00,38.0,36.2,35.1,35.3,90,14.94,50.864,0,2.2,86.1,3.1,100,0.00,0.00,0.00,33.809,34.8728
10min,FGNet,genola,42.05,09NOV2021:00:50:00,38.4,36.4,35.2,35.7,90,14.98,50.828,0,2.8,90.6,3.3,100,0.00,0.00,0.00,33.9278,35.069
10min,FGNet,genola,42.05,09NOV2021:01:00:00,38.6,36.5,35.4,35.8,89,14.95,50.792,0,2.4,89.8,3.1,100,0.00,0.00,0.00,35.2274,35.9366
10min,FGNet,genola,42.05,09NOV2021:01:10:00,39.4,37.2,35.8,36.3,88,14.96,50.774,0,2.7,85.3,3.3,100,0.00,0.00,0.00,35.1086,35.9744
10min,FGNet,genola,42.05,09NOV2021:01:20:00,39.7,37.6,36.3,36.4,88,14.91,50.756,0,2.7,83.4,3.5,100,0.00,0.00,0.00,35.7386,36.725
10min,FGNet,genola,42.05,09NOV2021:01:30:00,40.0,38.2,36.6,36.6,88,14.94,50.72,0,2.6,68.7,3.0,100,0.00,0.00,0.00,35.8178,36.9608
10min,FGNet,genola,42.05,09NOV2021:01:40:00,40.5,38.1,36.6,37.0,87,14.96,50.684,0,1.3,78.89,2.3,100,0.00,0.00,0.00,34.9898,36.4082
10min,FGNet,genola,42.05,09NOV2021:01:50:00,40.6,38.6,36.7,36.8,86,14.97,50.648,0,1.4,78.51,2.8,100,0.00,0.00,0.00,35.5424,37.0004
10min,FGNet,genola,42.05,09NOV2021:02:00:00,40.5,38.1,36.3,36.6,86,15.05,50.63,0,1.8,89.2,2.7,100,0.00,0.00,0.00,34.7144,36.0338
10min,FGNet,genola,42.05,09NOV2021:02:10:00,39.9,37.3,35.9,35.9,85,14.99,50.594,0,1.5,127.7,2.6,100,0.00,0.00,0.00,32.1566,33.9674
10min,FGNet,genola,42.05,09NOV2021:02:20:00,36.4,34.5,33.8,32.6,86,14.99,50.558,0,0.3,296.4,1.3,100,0.00,0.00,0.00,30.2684,31.9604
10min,FGNet,genola,42.05,09NOV2021:02:30:00,34.7,33.6,33.0,31.9,90,15.07,50.522,0,0.5,219.4,1.5,100,0.00,0.00,0.00,30.5834,32.117
10min,FGNet,genola,42.05,09NOV2021:02:40:00,34.1,33.5,33.0,32.3,93,14.99,50.486,0,2.4,124.6,3.2,100,0.00,0.00,0.00,31.2908,32.6678
10min,FGNet,genola,42.05,09NOV2021:02:50:00,36.8,36.0,34.7,35.7,96,14.98,50.468,0,1.5,68.05,3.4,100,0.00,0.00,0.00,33.575,34.4804
10min,FGNet,genola,42.05,09NOV2021:03:00:00,37.7,36.6,35.7,35.7,93,14.97,50.432,0,0.9,248.7,2.5,100,0.00,0.00,0.00,34.0898,34.7882
10min,FGNet,genola,42.05,09NOV2021:03:10:00,38.1,37.0,35.9,35.7,91,14.97,50.396,0,0.8,111,2.0,100,0.00,0.00,0.00,33.6884,34.682
10min,FGNet,genola,42.05,09NOV2021:03:20:00,38.1,36.3,35.5,35.0,89,15.03,50.36,0,0.7,269.3,1.7,100,0.00,0.00,0.00,33.8144,34.6406
10min,FGNet,genola,42.05,09NOV2021:03:30:00,37.3,36.1,35.0,35.0,91,15,50.324,0,1.9,193.4,2.8,100,0.00,0.00,0.00,32.9864,33.9314
10min,FGNet,genola,42.05,09NOV2021:03:40:00,37.0,36.2,35.4,34.9,92,15.07,50.306,0,2.6,237.6,4.2,100,0.00,0.00,0.00,34.6784,35.2202
10min,FGNet,genola,42.05,09NOV2021:03:50:00,36.2,35.3,34.5,34.3,93,15.04,50.27,0,1.7,147.9,3.5,100,0.00,0.00,0.00,33.2222,34.088
10min,FGNet,genola,42.05,09NOV2021:04:00:00,36.1,34.9,34.0,34.4,94,15.05,50.216,0,1.9,120,3.8,100,0.00,0.00,0.00,34.5632,35.0744
10min,FGNet,genola,42.05,09NOV2021:04:10:00,35.9,34.7,33.8,34.2,93,15.06,50.198,0,1.2,180.9,3.9,100,0.00,0.00,0.00,34.0142,34.3292
10min,FGNet,genola,42.05,09NOV2021:04:20:00,35.6,34.8,33.9,34.0,94,15.05,50.162,0,1.3,119.7,2.6,100,0.00,0.00,0.00,33.7784,34.3886
10min,FGNet,genola,42.05,09NOV2021:04:30:00,36.0,35.4,34.6,34.7,95,14.98,50.126,0,1.3,200.7,2.6,100,0.00,0.00,0.00,33.1106,33.818
10min,FGNet,genola,42.05,09NOV2021:04:40:00,36.2,35.8,35.3,34.9,95,14.96,50.09,0,2.3,133.2,3.9,100,0.00,0.00,0.00,35.5892,35.7476
10min,FGNet,genola,42.05,09NOV2021:04:50:00,37.5,36.8,36.0,35.8,94,15.06,50.054,0,1.1,270.7,3.1,100,0.00,0.00,0.00,34.6424,35.3894
10min,FGNet,genola,42.05,09NOV2021:05:00:00,36.4,35.8,35.4,34.3,92,15.02,50.018,0,1.2,172.2,2.3,100,0.00,0.00,0.00,34.3256,34.8368
10min,FGNet,genola,42.05,09NOV2021:05:10:00,36.1,36.0,35.6,34.5,94,15.01,49.964,0,2.0,101.7,3.1,100,0.00,0.00,0.00,35.582,35.8988
10min,FGNet,genola,42.05,09NOV2021:05:20:00,36.6,36.3,35.8,35.2,95,15,49.946,0,1.7,163,2.7,100,0.00,0.00,0.00,34.7162,35.1104
10min,FGNet,genola,42.05,09NOV2021:05:30:00,36.2,36.1,35.8,34.7,94,15.08,49.91,0,0.7,132.7,1.7,100,0.00,0.00,0.00,35.2076,35.483
10min,FGNet,genola,42.05,09NOV2021:05:40:00,36.2,36.1,35.7,34.8,95,15.01,49.874,0,1.2,242.7,2.7,100,0.00,0.00,0.00,34.8728,35.2274
10min,FGNet,genola,42.05,09NOV2021:05:50:00,35.9,36.1,35.8,34.8,96,15,49.838,0,1.9,212.8,2.4,100,0.00,0.00,0.00,35.5424,35.8178